Grand Junction, CO

2:04 PM MDT on August 29, 2016 (GMT -0600)
Walker

Weather History for KGJT - July, 2013

Change the Weather History Date:

Saturday, July 27, 2013

  Actual Average Record
Temperature  
Mean Temperature 77 °F 78 °F  
Max Temperature 90 °F 93 °F 102 °F (1969)
Min Temperature 63 °F 64 °F 56 °F (2002)
Degree Days  
Heating Degree Days 0 0  
Month to date heating degree days 0 0  
Since 1 June heating degree days 5 22  
Since 1 July heating degree days 0 0  
Cooling Degree Days 12 13  
Month to date cooling degree days 417 360  
Year to date cooling degree days 786 642  
Since 1 June cooling degree days 731 591  
Growing Degree Days 27 (Base 50)    
Moisture  
Dew Point 51 °F    
Average Humidity 43    
Maximum Humidity 61    
Minimum Humidity 24    
Precipitation  
Precipitation 0.14 in 0.03 in 0.61 in (1910)
Month to date precipitation 0.78 0.51  
Year to date precipitation 4.20 4.80  
Snow  
Snow 0.00 in 0.00 in 0.00 in (2001)
Month to date snowfall 0.0 0.0  
Since 1 June snowfall 0.0 0.0  
Since 1 July snowfall 0.0 0.0  
Snow Depth 0.00 in    
Sea Level Pressure  
Sea Level Pressure 29.86 in    
Wind  
Wind Speed 10 mph (ESE)    
Max Wind Speed 28 mph    
Max Gust Speed 35 mph    
Visibility 10 miles    
Events Rain , Thunderstorm    
T = Trace of Precipitation, MM = Missing Value Source: NWS Daily Summary

Daily Weather History Graph

Daily Weather History Graph

Search for Another Location

Airport or City:

Trip Planner

Search our weather history database for the weather conditions in past years. The results will help you decide how hot, cold, wet, or windy it might be!

Date:

Astronomy

Jul. 27, 2013 Rise Set
Actual Time 6:10 AM MDT 8:30 PM MDT
Civil Twilight 5:40 AM MDT 9:00 PM MDT
Nautical Twilight 5:02 AM MDT 9:37 PM MDT
Astronomical Twilight 4:21 AM MDT 10:18 PM MDT
Moon 11:22 PM MDT (7/27) 11:51 AM MDT (7/27)
Length of Visible Light 15h 20m
Length of Day
14h 19m
Waning Gibbous, 70% of the Moon is Illuminated
Jul 27
Waning Gibbous
Jul 29
Last Quarter
Aug 6
New
Aug 14
First Quarter
Aug 20
Full

Hourly Weather History & Observations

Time (MDT) Temp. Heat Index Dew Point Humidity Pressure Visibility Wind Dir Wind Speed Gust Speed Precip Events Conditions
12:53 AM 75.0 °F - 39.9 °F 28% 29.85 in 10.0 mi SSE 5.8 mph - N/A   Clear
1:53 AM 73.0 °F - 37.9 °F 28% 29.84 in 10.0 mi East 10.4 mph - N/A   Clear
2:53 AM 78.1 °F - 41.0 °F 27% 29.83 in 10.0 mi ESE 16.1 mph - N/A   Clear
3:53 AM 75.9 °F - 45.0 °F 33% 29.86 in 10.0 mi ESE 6.9 mph - N/A   Clear
4:53 AM 75.0 °F - 46.9 °F 37% 29.87 in 10.0 mi ESE 11.5 mph - N/A   Clear
5:53 AM 75.0 °F - 48.0 °F 38% 29.89 in 10.0 mi ESE 10.4 mph - N/A   Clear
6:53 AM 73.9 °F - 48.0 °F 40% 29.91 in 10.0 mi ESE 12.7 mph - N/A   Clear
7:53 AM 75.0 °F - 48.9 °F 40% 29.91 in 10.0 mi SE 8.1 mph - N/A   Clear
8:53 AM 77.0 °F - 48.9 °F 37% 29.93 in 10.0 mi SE 9.2 mph - N/A   Clear
9:53 AM 80.1 °F - 46.9 °F 31% 29.91 in 10.0 mi SSE 6.9 mph - N/A   Clear
10:53 AM 82.0 °F - 48.0 °F 30% 29.91 in 10.0 mi SSE 5.8 mph - N/A   Clear
11:53 AM 86.0 °F - 46.9 °F 26% 29.87 in 10.0 mi WNW 8.1 mph - N/A   Clear
12:53 PM 87.1 °F - 46.9 °F 25% 29.84 in 10.0 mi Calm Calm - N/A   Clear
1:53 PM 90.0 °F - 48.0 °F 24% 29.81 in 10.0 mi West 6.9 mph - N/A   Clear
2:38 PM 87.8 °F - 48.2 °F 25% 30.04 in 10.0 mi WSW 8.1 mph - N/A Thunderstorm Thunderstorm
2:53 PM 81.0 °F 80.5 °F 54.0 °F 39% 29.81 in 10.0 mi South 9.2 mph - 0.00 in Rain , Thunderstorm Light Thunderstorms and Rain
3:53 PM 72.0 °F - 52.0 °F 49% 29.82 in 10.0 mi NW 24.2 mph 33.4 mph N/A Rain , Thunderstorm Light Thunderstorms and Rain
4:00 PM 69.8 °F - 53.6 °F 56% 30.02 in 9.0 mi NW 25.3 mph 34.5 mph 0.00 in Rain , Thunderstorm Light Thunderstorms and Rain
4:22 PM 73.4 °F - 53.6 °F 50% 30.00 in 10.0 mi North 18.4 mph - 0.00 in   Mostly Cloudy
4:53 PM 75.9 °F - 57.0 °F 52% 29.77 in 10.0 mi NNE 10.4 mph - 0.00 in   Mostly Cloudy
5:53 PM 77.0 °F - 60.1 °F 56% 29.75 in 10.0 mi NE 5.8 mph - N/A   Mostly Cloudy
6:53 PM 75.9 °F - 60.1 °F 58% 29.75 in 10.0 mi Calm Calm - N/A   Overcast
7:53 PM 72.0 °F - 57.9 °F 61% 29.77 in 10.0 mi NE 3.5 mph - 0.01 in   Overcast
8:53 PM 73.9 °F - 53.1 °F 48% 29.77 in 10.0 mi ENE 11.5 mph 19.6 mph N/A   Scattered Clouds
9:53 PM 69.1 °F - 59.0 °F 70% 29.85 in 5.0 mi SSE 19.6 mph 23.0 mph 0.01 in Rain Heavy Rain
10:53 PM 66.9 °F - 60.1 °F 79% 29.85 in 10.0 mi SE 15.0 mph - 0.03 in   Overcast
11:53 PM 64.0 °F - 62.1 °F 93% 29.86 in 10.0 mi ESE 10.4 mph - 0.01 in Rain Light Rain